St. Charles, IL

1:23 AM CDT on April 23, 2017 (GMT -0500)
Saint Charles County Smartt

Weather History for KSET - November, 2012

Change the Weather History Date:

Saturday, November 24, 2012

  Actual Average (KSTL) Record (KSTL)
Temperature  
Mean Temperature 30 °F -  
Max Temperature 36 °F 49 °F 74 °F (1966)
Min Temperature 23 °F 32 °F 3 °F (1950)
Degree Days  
Heating Degree Days 36    
Moisture  
Dew Point 19 °F    
Average Humidity 66    
Maximum Humidity 79    
Minimum Humidity 50    
Precipitation  
Precipitation 0.00 in - - ()
Sea Level Pressure  
Sea Level Pressure 30.25 in    
Wind  
Wind Speed 7 mph (WSW)    
Max Wind Speed 12 mph    
Max Gust Speed -    
Visibility 10 miles    
Events      
Averages and records for this station are not official NWS values.
T = Trace of Precipitation, MM = Missing Value Source: NWS Daily Summary

Daily Weather History Graph

Daily Weather History Graph

Search for Another Location

Airport or City:

Trip Planner

Search our weather history database for the weather conditions in past years. The results will help you decide how hot, cold, wet, or windy it might be!

Date:

Astronomy

Nov. 24, 2012 Rise Set
Actual Time 6:54 AM CST 4:42 PM CST
Civil Twilight 6:25 AM CST 5:11 PM CST
Nautical Twilight 5:52 AM CST 5:43 PM CST
Astronomical Twilight 5:21 AM CST 6:15 PM CST
Moon 2:25 PM CST (11/24) 3:13 AM CST (11/24)
Length of Visible Light 10h 45m
Length of Day
9h 47m
Waxing Gibbous, 87% of the Moon is Illuminated
Nov 24
Waxing Gibbous
Nov 28
Full
Dec 6
Last Quarter
Dec 13
New
Dec 19
First Quarter

Hourly Weather History & Observations

Time (CST) Temp. Windchill Dew Point Humidity Pressure Visibility Wind Dir Wind Speed Gust Speed Precip Events Conditions
12:54 AM 28.0 °F 18.1 °F 18.0 °F 66% 30.36 in 10.0 mi WNW 11.5 mph - N/A   Clear
1:54 AM 28.0 °F 20.0 °F 16.0 °F 61% 30.35 in 10.0 mi NW 8.1 mph - N/A   Clear
2:54 AM 27.0 °F 18.7 °F 16.0 °F 63% 30.36 in 10.0 mi WNW 8.1 mph - N/A   Clear
3:54 AM 24.1 °F 15.2 °F 16.0 °F 71% 30.35 in 10.0 mi West 8.1 mph - N/A   Clear
4:54 AM 24.1 °F 16.0 °F 17.1 °F 75% 30.34 in 10.0 mi West 6.9 mph - N/A   Clear
5:54 AM 23.0 °F 14.7 °F 17.1 °F 78% 30.35 in 10.0 mi West 6.9 mph - N/A   Clear
6:54 AM 23.0 °F 15.8 °F 17.1 °F 78% 30.36 in 10.0 mi West 5.8 mph - N/A   Clear
7:54 AM 25.0 °F 18.1 °F 17.1 °F 72% 30.37 in 10.0 mi WNW 5.8 mph - N/A   Clear
8:54 AM 27.0 °F 17.3 °F 17.1 °F 66% 30.37 in 10.0 mi NW 10.4 mph - N/A   Clear
9:54 AM 27.0 °F 21.6 °F 16.0 °F 63% 30.37 in 10.0 mi West 4.6 mph - N/A   Clear
10:54 AM 28.9 °F 25.2 °F 17.1 °F 61% 30.36 in 10.0 mi West 3.5 mph - N/A   Clear
11:54 AM 30.9 °F 26.2 °F 17.1 °F 57% 30.32 in 10.0 mi NW 4.6 mph - N/A   Clear
12:54 PM 33.1 °F 30.0 °F 18.0 °F 54% 30.27 in 10.0 mi SW 3.5 mph - N/A   Clear
1:54 PM 35.1 °F 30.1 °F 18.0 °F 50% 30.25 in 10.0 mi Variable 5.8 mph - N/A   Clear
2:54 PM 36.0 °F 30.3 °F 19.0 °F 50% 30.22 in 10.0 mi SW 6.9 mph - N/A   Clear
3:54 PM 36.0 °F 32.1 °F 19.0 °F 50% 30.20 in 10.0 mi SSW 4.6 mph - N/A   Clear
4:54 PM 33.1 °F 28.7 °F 19.9 °F 59% 30.17 in 10.0 mi SE 4.6 mph - N/A   Clear
5:54 PM 30.0 °F 24.1 °F 19.9 °F 66% 30.15 in 10.0 mi South 5.8 mph - N/A   Clear
6:54 PM 28.9 °F 22.8 °F 19.9 °F 69% 30.12 in 10.0 mi SE 5.8 mph - N/A   Clear
7:54 PM 27.0 °F 21.6 °F 19.0 °F 72% 30.10 in 10.0 mi ESE 4.6 mph - N/A   Clear
8:54 PM 27.0 °F 20.5 °F 21.0 °F 78% 30.07 in 10.0 mi SE 5.8 mph - N/A   Clear
9:54 PM 32.0 °F 26.4 °F 21.9 °F 66% 30.06 in 10.0 mi SSE 5.8 mph - N/A   Clear
10:54 PM 30.0 °F 24.1 °F 23.0 °F 75% 30.04 in 10.0 mi ESE 5.8 mph - N/A   Clear
11:54 PM 30.0 °F 23.2 °F 24.1 °F 79% 30.03 in 10.0 mi East 6.9 mph - N/A   Clear